^^

..:: Storico WU ::..




Lo storico viene creato da WUnderground con i dati che la stazione Meteomincio invia al loro server. L' aggiornamento viene fatto ogni 5 minuti circa, tuttavia possono esserci intervalli pił ampi a causa di errori, interruzioni di servizio o problemi nell' invio tramite FTP.


Storico stazione MeteoMincio
Giorno Sommario per Settembre 26, 2022 Unità:  Inglese    Metrico   Entrambi
Giorno Settimana Mese Anno
  Max: Min: Media:
Temperatura: 73.4 °F 53.6 °F 62.1 °F
Dew Point: 60.8 °F 51.8 °F 56.5 °F
Umidità: 97% 60% 84%
Velocità vento: 6.2mph 0mph 2.7mph
Raffica: 9.3mph - -
Direzione- - SW
Pressione: 29.8 in 29.6 in -
Precipitazioni: 0.01 in    
 
 
Tabulato Dati per Settembre 26, 2022
Ora Temperatura Dew Point Pressione Direzione Velocità vento Raffica Umidità Intensità pioggia (oraria) Info solare Situazione
00:04 59 °F 57.2 °F 29.8 in WSW 1.2 mph 2.5 mph 93% 0 in 0.00 W/m2 unknown
00:09 59 °F 55.4 °F 29.8 in Calm   1.9 mph 92% 0 in 0.00 W/m2 unknown
00:14 59 °F 55.4 °F 29.8 in WSW 1.2 mph 2.5 mph 92% 0 in 0.00 W/m2 unknown
00:19 59 °F 55.4 °F 29.8 in WSW 1.2 mph 2.5 mph 92% 0 in 0.00 W/m2 unknown
00:24 59 °F 55.4 °F 29.8 in West 1.9 mph 3.1 mph 92% 0 in 0.00 W/m2 unknown
00:29 57.2 °F 55.4 °F 29.8 in WSW 1.9 mph 3.7 mph 92% 0 in 0.00 W/m2 unknown
00:34 57.2 °F 55.4 °F 29.8 in West 2.5 mph 3.7 mph 92% 0 in 0.00 W/m2 unknown
00:39 57.2 °F 55.4 °F 29.8 in West 1.9 mph 3.7 mph 93% 0 in 0.00 W/m2 unknown
00:44 57.2 °F 55.4 °F 29.8 in West 1.9 mph 3.7 mph 93% 0 in 0.00 W/m2 unknown
00:49 57.2 °F 55.4 °F 29.8 in WNW 1.9 mph 3.7 mph 93% 0 in 0.00 W/m2 unknown
00:54 57.2 °F 55.4 °F 29.8 in West 1.2 mph 3.1 mph 93% 0 in 0.00 W/m2 unknown
00:59 57.2 °F 55.4 °F 29.8 in West 1.2 mph 2.5 mph 93% 0 in 0.00 W/m2 unknown
01:04 57.2 °F 55.4 °F 29.8 in West 1.2 mph 1.9 mph 93% 0 in 0.00 W/m2 unknown
01:09 57.2 °F 55.4 °F 29.8 in WSW 1.2 mph 2.5 mph 93% 0 in 0.00 W/m2 unknown
01:14 57.2 °F 55.4 °F 29.8 in WSW 1.2 mph 2.5 mph 93% 0 in 0.00 W/m2 unknown
01:19 57.2 °F 55.4 °F 29.8 in WSW 1.9 mph 2.5 mph 93% 0 in 0.00 W/m2 unknown
01:24 57.2 °F 55.4 °F 29.8 in SW 1.9 mph 2.5 mph 93% 0 in 0.00 W/m2 unknown
01:29 57.2 °F 55.4 °F 29.8 in SW 1.2 mph 2.5 mph 93% 0 in 0.00 W/m2 unknown
01:34 57.2 °F 55.4 °F 29.8 in SW 1.9 mph 2.5 mph 94% 0 in 0.00 W/m2 unknown
01:39 57.2 °F 55.4 °F 29.8 in SW 1.9 mph 2.5 mph 94% 0 in 0.00 W/m2 unknown
01:44 57.2 °F 55.4 °F 29.8 in SW 1.2 mph 2.5 mph 94% 0 in 0.00 W/m2 unknown
01:49 57.2 °F 55.4 °F 29.8 in WSW 1.2 mph 2.5 mph 94% 0 in 0.00 W/m2 unknown
01:54 57.2 °F 55.4 °F 29.8 in WSW 0.6 mph 1.9 mph 94% 0 in 0.00 W/m2 unknown
01:59 57.2 °F 55.4 °F 29.8 in WSW 0.6 mph 1.2 mph 94% 0 in 0.00 W/m2 unknown
02:04 57.2 °F 55.4 °F 29.8 in WSW 0.6 mph 2.5 mph 94% 0 in 0.00 W/m2 unknown
02:09 57.2 °F 55.4 °F 29.8 in SW 1.2 mph 3.1 mph 94% 0 in 0.00 W/m2 unknown
02:14 57.2 °F 55.4 °F 29.8 in SW 2.5 mph 3.7 mph 94% 0 in 0.00 W/m2 unknown
02:19 57.2 °F 55.4 °F 29.8 in SW 2.5 mph 3.7 mph 94% 0 in 0.00 W/m2 unknown
02:24 57.2 °F 55.4 °F 29.8 in SW 1.9 mph 3.1 mph 94% 0 in 0.00 W/m2 unknown
02:29 55.4 °F 55.4 °F 29.8 in WSW 1.2 mph 2.5 mph 94% 0 in 0.00 W/m2 unknown
02:34 55.4 °F 53.6 °F 29.8 in WSW 1.2 mph 2.5 mph 94% 0 in 0.00 W/m2 unknown
02:39 55.4 °F 53.6 °F 29.8 in West 1.9 mph 3.7 mph 94% 0 in 0.00 W/m2 unknown
02:44 55.4 °F 53.6 °F 29.8 in West 1.9 mph 3.7 mph 94% 0 in 0.00 W/m2 unknown
02:49 55.4 °F 53.6 °F 29.8 in West 2.5 mph 3.7 mph 94% 0 in 0.00 W/m2 unknown
02:54 55.4 °F 53.6 °F 29.8 in West 1.9 mph 3.7 mph 94% 0 in 0.00 W/m2 unknown
02:59 55.4 °F 53.6 °F 29.8 in West 1.9 mph 3.7 mph 94% 0 in 0.00 W/m2 unknown
03:04 55.4 °F 53.6 °F 29.8 in West 2.5 mph 3.7 mph 94% 0 in 0.00 W/m2 unknown
03:09 55.4 °F 53.6 °F 29.8 in WSW 2.5 mph 3.7 mph 94% 0 in 0.00 W/m2 unknown
03:14 55.4 °F 53.6 °F 29.8 in WSW 2.5 mph 3.7 mph 94% 0 in 0.00 W/m2 unknown
03:19 55.4 °F 53.6 °F 29.8 in SW 2.5 mph 3.7 mph 94% 0 in 0.00 W/m2 unknown
03:24 55.4 °F 53.6 °F 29.8 in WSW 2.5 mph 3.7 mph 95% 0 in 0.00 W/m2 unknown
03:29 55.4 °F 53.6 °F 29.8 in WSW 2.5 mph 3.7 mph 95% 0 in 0.00 W/m2 unknown
03:34 55.4 °F 53.6 °F 29.8 in West 1.9 mph 3.7 mph 95% 0 in 0.00 W/m2 unknown
03:39 55.4 °F 53.6 °F 29.8 in West 2.5 mph 3.7 mph 94% 0 in 0.00 W/m2 unknown
03:44 55.4 °F 53.6 °F 29.8 in West 1.9 mph 3.7 mph 94% 0 in 0.00 W/m2 unknown
03:49 55.4 °F 53.6 °F 29.8 in West 1.9 mph 3.1 mph 95% 0 in 0.00 W/m2 unknown
03:54 55.4 °F 53.6 °F 29.8 in West 1.9 mph 2.5 mph 95% 0 in 0.00 W/m2 unknown
03:59 55.4 °F 53.6 °F 29.8 in West 1.2 mph 2.5 mph 95% 0 in 0.00 W/m2 unknown
04:04 55.4 °F 53.6 °F 29.8 in West 1.2 mph 2.5 mph 95% 0 in 0.00 W/m2 unknown
04:09 55.4 °F 53.6 °F 29.8 in WSW 1.9 mph 3.7 mph 95% 0 in 0.00 W/m2 unknown
04:14 55.4 °F 53.6 °F 29.8 in West 1.9 mph 3.7 mph 95% 0 in 0.00 W/m2 unknown
04:19 55.4 °F 53.6 °F 29.8 in WNW 1.9 mph 3.7 mph 95% 0 in 0.00 W/m2 unknown
04:24 55.4 °F 53.6 °F 29.8 in WNW 1.9 mph 3.7 mph 95% 0 in 0.00 W/m2 unknown
04:29 55.4 °F 53.6 °F 29.8 in WNW 1.9 mph 3.7 mph 95% 0 in 0.00 W/m2 unknown
04:34 55.4 °F 53.6 °F 29.8 in West 1.9 mph 3.7 mph 95% 0 in 0.00 W/m2 unknown
04:39 55.4 °F 53.6 °F 29.8 in West 1.2 mph 2.5 mph 95% 0 in 0.00 W/m2 unknown
04:44 55.4 °F 53.6 °F 29.8 in WNW 1.9 mph 2.5 mph 95% 0 in 0.00 W/m2 unknown
04:49 55.4 °F 53.6 °F 29.8 in West 1.9 mph 2.5 mph 95% 0 in 0.00 W/m2 unknown
04:54 55.4 °F 53.6 °F 29.8 in WNW 1.9 mph 3.7 mph 95% 0 in 0.00 W/m2 unknown
04:59 55.4 °F 53.6 °F 29.8 in WNW 1.9 mph 3.7 mph 95% 0 in 0.00 W/m2 unknown
05:04 55.4 °F 53.6 °F 29.8 in WNW 1.9 mph 3.7 mph 95% 0 in 0.00 W/m2 unknown
05:09 55.4 °F 53.6 °F 29.8 in WNW 1.2 mph 2.5 mph 95% 0 in 0.00 W/m2 unknown
05:14 55.4 °F 53.6 °F 29.8 in West 1.9 mph 2.5 mph 95% 0 in 0.00 W/m2 unknown
05:19 55.4 °F 53.6 °F 29.8 in WSW 1.9 mph 2.5 mph 95% 0 in 0.00 W/m2 unknown
05:24 53.6 °F 53.6 °F 29.8 in WSW 1.9 mph 3.7 mph 95% 0 in 0.00 W/m2 unknown
05:29 53.6 °F 53.6 °F 29.8 in WSW 2.5 mph 3.7 mph 95% 0 in 0.00 W/m2 unknown
05:34 53.6 °F 53.6 °F 29.8 in West 2.5 mph 3.7 mph 95% 0 in 0.00 W/m2 unknown
05:39 53.6 °F 51.8 °F 29.8 in West 1.9 mph 3.7 mph 95% 0 in 0.00 W/m2 unknown
05:44 53.6 °F 51.8 °F 29.8 in West 2.5 mph 3.7 mph 95% 0 in 0.00 W/m2 unknown
05:49 53.6 °F 51.8 °F 29.8 in West 3.1 mph 3.7 mph 95% 0 in 0.00 W/m2 unknown
05:54 53.6 °F 51.8 °F 29.8 in West 2.5 mph 3.7 mph 95% 0 in 0.00 W/m2 unknown
05:59 53.6 °F 51.8 °F 29.8 in West 1.9 mph 3.7 mph 95% 0 in 0.00 W/m2 unknown
06:04 53.6 °F 51.8 °F 29.8 in West 1.9 mph 3.7 mph 95% 0 in 0.00 W/m2 unknown
06:09 53.6 °F 51.8 °F 29.8 in WSW 1.9 mph 3.7 mph 95% 0 in 0.00 W/m2 unknown
06:14 53.6 °F 51.8 °F 29.8 in SW 3.1 mph 3.7 mph 95% 0 in 0.00 W/m2 unknown
06:19 53.6 °F 53.6 °F 29.8 in SW 3.1 mph 5 mph 95% 0 in 0.00 W/m2 unknown
06:24 53.6 °F 53.6 °F 29.8 in SW 3.1 mph 5 mph 95% 0 in 0.00 W/m2 unknown
06:29 53.6 °F 53.6 °F 29.8 in SSW 3.1 mph 3.7 mph 95% 0 in 0.00 W/m2 unknown
06:34 53.6 °F 51.8 °F 29.8 in SW 3.1 mph 3.7 mph 95% 0 in 0.00 W/m2 unknown
06:39 53.6 °F 53.6 °F 29.8 in SW 3.7 mph 6.2 mph 95% 0 in 0.00 W/m2 unknown
06:44 53.6 °F 53.6 °F 29.8 in WSW 3.1 mph 6.2 mph 95% 0 in 0.00 W/m2 unknown
06:49 53.6 °F 53.6 °F 29.8 in WSW 3.7 mph 6.2 mph 95% 0 in 0.00 W/m2 unknown
06:54 53.6 °F 51.8 °F 29.8 in West 3.7 mph 6.2 mph 95% 0 in 0.00 W/m2 unknown
06:59 53.6 °F 51.8 °F 29.7 in West 3.7 mph 6.2 mph 95% 0 in 0.00 W/m2 unknown
07:04 53.6 °F 51.8 °F 29.7 in WSW 3.7 mph 5 mph 95% 0 in 0.00 W/m2 unknown
07:09 53.6 °F 51.8 °F 29.8 in WSW 3.1 mph 5 mph 95% 0 in 0.00 W/m2 unknown
07:14 53.6 °F 51.8 °F 29.8 in SW 3.1 mph 5 mph 96% 0 in 0.00 W/m2 unknown
07:19 53.6 °F 51.8 °F 29.8 in WSW 2.5 mph 5 mph 96% 0 in 0.00 W/m2 unknown
07:24 53.6 °F 51.8 °F 29.8 in West 3.1 mph 5 mph 96% 0 in 0.00 W/m2 unknown
07:29 53.6 °F 51.8 °F 29.8 in West 3.7 mph 4.3 mph 96% 0.01 in 5.00 W/m2 unknown
07:34 53.6 °F 51.8 °F 29.8 in West 3.7 mph 5 mph 96% 0.01 in 5.00 W/m2 unknown
07:39 53.6 °F 51.8 °F 29.8 in West 3.7 mph 5 mph 96% 0.01 in 7.00 W/m2 unknown
07:44 53.6 °F 51.8 °F 29.8 in West 3.1 mph 3.7 mph 96% 0.01 in 7.00 W/m2 unknown
07:49 53.6 °F 51.8 °F 29.8 in WSW 2.5 mph 3.7 mph 96% 0.01 in 9.00 W/m2 unknown
07:54 53.6 °F 51.8 °F 29.8 in WSW 1.9 mph 3.7 mph 96% 0.01 in 12.00 W/m2 unknown
07:59 53.6 °F 51.8 °F 29.8 in West 1.9 mph 3.7 mph 96% 0.01 in 16.00 W/m2 unknown
08:04 53.6 °F 51.8 °F 29.8 in WNW 2.5 mph 3.7 mph 96% 0.01 in 23.00 W/m2 unknown
08:09 53.6 °F 51.8 °F 29.8 in NW 3.7 mph 5 mph 96% 0.01 in 28.00 W/m2 unknown
08:14 53.6 °F 51.8 °F 29.7 in WNW 3.7 mph 6.2 mph 96% 0.01 in 32.00 W/m2 unknown
08:19 53.6 °F 51.8 °F 29.8 in NW 3.7 mph 6.2 mph 96% 0.01 in 37.00 W/m2 unknown
08:24 53.6 °F 51.8 °F 29.8 in WNW 3.1 mph 6.2 mph 96% 0.01 in 37.00 W/m2 unknown
08:29 53.6 °F 53.6 °F 29.8 in SW 4.3 mph 6.2 mph 96% 0.01 in 25.00 W/m2 unknown
08:34 53.6 °F 53.6 °F 29.8 in SSW 4.3 mph 6.2 mph 96% 0.01 in 30.00 W/m2 unknown
08:39 53.6 °F 53.6 °F 29.8 in SW 5 mph 6.8 mph 96% 0.01 in 77.00 W/m2 unknown
08:44 53.6 °F 53.6 °F 29.8 in WSW 5 mph 6.8 mph 96% 0.01 in 37.00 W/m2 unknown
08:49 53.6 °F 53.6 °F 29.8 in West 5 mph 6.8 mph 96% 0 in 132.00 W/m2 unknown
08:54 53.6 °F 53.6 °F 29.8 in WNW 5.6 mph 6.8 mph 96% 0 in 132.00 W/m2 unknown
08:59 53.6 °F 53.6 °F 29.8 in WNW 5 mph 6.8 mph 96% 0 in 95.00 W/m2 unknown
09:04 53.6 °F 53.6 °F 29.8 in WNW 5 mph 6.2 mph 96% 0 in 91.00 W/m2 unknown
09:09 53.6 °F 53.6 °F 29.8 in WNW 5 mph 6.2 mph 96% 0 in 125.00 W/m2 unknown
09:14 55.4 °F 53.6 °F 29.8 in WSW 5 mph 6.2 mph 96% 0 in 160.00 W/m2 unknown
09:19 55.4 °F 53.6 °F 29.8 in West 3.7 mph 5 mph 97% 0 in 144.00 W/m2 unknown
09:24 55.4 °F 53.6 °F 29.8 in WSW 3.7 mph 6.2 mph 97% 0 in 97.00 W/m2 unknown
09:29 55.4 °F 53.6 °F 29.8 in WSW 3.7 mph 5 mph 97% 0 in 81.00 W/m2 unknown
09:34 55.4 °F 53.6 °F 29.8 in WSW 4.3 mph 6.2 mph 97% 0 in 174.00 W/m2 unknown
09:39 55.4 °F 55.4 °F 29.8 in WSW 4.3 mph 6.2 mph 97% 0 in 156.00 W/m2 unknown
09:44 55.4 °F 55.4 °F 29.8 in WSW 3.1 mph 5 mph 97% 0 in 172.00 W/m2 unknown
09:49 55.4 °F 55.4 °F 29.8 in WSW 3.1 mph 5 mph 97% 0 in 141.00 W/m2 unknown
09:54 55.4 °F 55.4 °F 29.8 in SW 3.1 mph 6.2 mph 97% 0 in 207.00 W/m2 unknown
09:59 55.4 °F 55.4 °F 29.8 in SW 4.3 mph 6.2 mph 97% 0 in 207.00 W/m2 unknown
10:04 55.4 °F 55.4 °F 29.8 in SW 4.3 mph 6.2 mph 97% 0 in 181.00 W/m2 unknown
10:09 55.4 °F 55.4 °F 29.8 in WSW 3.7 mph 6.2 mph 97% 0 in 213.00 W/m2 unknown
10:14 57.2 °F 55.4 °F 29.8 in WSW 3.7 mph 6.8 mph 97% 0 in 213.00 W/m2 unknown
10:19 57.2 °F 55.4 °F 29.8 in WSW 5.6 mph 6.8 mph 97% 0 in 229.00 W/m2 unknown
10:24 57.2 °F 55.4 °F 29.8 in WSW 5.6 mph 6.8 mph 97% 0 in 207.00 W/m2 unknown
10:29 57.2 °F 57.2 °F 29.8 in WSW 5.6 mph 6.8 mph 97% 0 in 278.00 W/m2 unknown
10:34 57.2 °F 57.2 °F 29.8 in WSW 6.2 mph 6.8 mph 97% 0 in 278.00 W/m2 unknown
10:39 59 °F 57.2 °F 29.8 in West 3.1 mph 6.8 mph 97% 0 in 396.00 W/m2 unknown
10:44 59 °F 57.2 °F 29.8 in West 5 mph 6.8 mph 97% 0 in 343.00 W/m2 unknown
10:49 59 °F 59 °F 29.8 in WSW 5 mph 6.8 mph 97% 0 in 566.00 W/m2 unknown
10:54 60.8 °F 59 °F 29.8 in SW 5 mph 6.8 mph 97% 0 in 566.00 W/m2 unknown
10:59 60.8 °F 59 °F 29.8 in WNW 4.3 mph 5 mph 96% 0 in 506.00 W/m2 unknown
11:04 60.8 °F 59 °F 29.8 in West 4.3 mph 5 mph 95% 0 in 522.00 W/m2 unknown
11:09 62.6 °F 60.8 °F 29.8 in West 3.7 mph 5 mph 93% 0 in 540.00 W/m2 unknown
11:14 62.6 °F 60.8 °F 29.8 in West 3.7 mph 6.2 mph 92% 0 in 545.00 W/m2 unknown
11:19 64.4 °F 60.8 °F 29.8 in West 4.3 mph 6.2 mph 90% 0 in 555.00 W/m2 unknown
11:24 64.4 °F 60.8 °F 29.8 in WNW 5 mph 6.2 mph 88% 0 in 566.00 W/m2 unknown
11:29 64.4 °F 60.8 °F 29.8 in West 5 mph 6.2 mph 88% 0 in 578.00 W/m2 unknown
11:34 64.4 °F 60.8 °F 29.8 in West 3.1 mph 6.2 mph 86% 0 in 580.00 W/m2 unknown
11:39 64.4 °F 60.8 °F 29.7 in WNW 4.3 mph 6.2 mph 85% 0 in 592.00 W/m2 unknown
11:44 66.2 °F 60.8 °F 29.7 in NNW 4.3 mph 6.2 mph 84% 0 in 599.00 W/m2 unknown
11:49 68 °F 60.8 °F 29.7 in NNW 4.3 mph 6.2 mph 84% 0 in 610.00 W/m2 unknown
11:54 68 °F 60.8 °F 29.7 in NNW 3.7 mph 5 mph 82% 0 in 615.00 W/m2 unknown
11:59 68 °F 60.8 °F 29.7 in WNW 2.5 mph 5 mph 80% 0 in 626.00 W/m2 unknown
12:04 68 °F 60.8 °F 29.7 in WNW 2.5 mph 3.7 mph 77% 0 in 631.00 W/m2 unknown
12:09 68 °F 59 °F 29.7 in WSW 1.9 mph 3.7 mph 75% 0 in 635.00 W/m2 unknown
12:14 68 °F 59 °F 29.7 in WSW 1.9 mph 3.7 mph 74% 0 in 647.00 W/m2 unknown
12:19 68 °F 59 °F 29.7 in WSW 3.7 mph 6.2 mph 73% 0 in 661.00 W/m2 unknown
12:24 68 °F 59 °F 29.7 in WSW 3.7 mph 6.2 mph 73% 0 in 671.00 W/m2 unknown
12:29 68 °F 59 °F 29.7 in WSW 3.1 mph 6.2 mph 72% 0 in 737.00 W/m2 unknown
12:34 68 °F 59 °F 29.7 in SW 4.3 mph 6.2 mph 72% 0 in 318.00 W/m2 unknown
12:39 68 °F 59 °F 29.7 in SW 5.6 mph 6.8 mph 72% 0 in 784.00 W/m2 unknown
12:44 68 °F 59 °F 29.7 in SSW 5.6 mph 6.8 mph 71% 0 in 737.00 W/m2 unknown
12:49 68 °F 59 °F 29.7 in SW 3.1 mph 6.8 mph 72% 0 in 752.00 W/m2 unknown
12:54 69.8 °F 59 °F 29.7 in SW 1.9 mph 5 mph 72% 0 in 814.00 W/m2 unknown
12:59 69.8 °F 59 °F 29.7 in SW 3.7 mph 6.2 mph 70% 0 in 415.00 W/m2 unknown
13:04 69.8 °F 59 °F 29.7 in WSW 3.7 mph 6.2 mph 70% 0 in 503.00 W/m2 unknown
13:09 69.8 °F 59 °F 29.7 in WSW 2.5 mph 3.7 mph 70% 0 in 503.00 W/m2 unknown
13:14 69.8 °F 59 °F 29.7 in WNW 1.9 mph 5 mph 69% 0 in 425.00 W/m2 unknown
13:19 69.8 °F 59 °F 29.7 in West 2.5 mph 5 mph 68% 0 in 626.00 W/m2 unknown
13:24 69.8 °F 59 °F 29.7 in SSW 3.7 mph 5 mph 68% 0 in 854.00 W/m2 unknown
13:29 69.8 °F 59 °F 29.7 in SSW 3.7 mph 5 mph 67% 0 in 835.00 W/m2 unknown
13:34 69.8 °F 59 °F 29.7 in WSW 3.1 mph 5 mph 66% 0 in 810.00 W/m2 unknown
13:39 71.6 °F 59 °F 29.7 in West 3.7 mph 5 mph 65% 0 in 679.00 W/m2 unknown
13:44 71.6 °F 59 °F 29.7 in West 3.1 mph 5 mph 65% 0 in 659.00 W/m2 unknown
13:49 71.6 °F 59 °F 29.7 in South 1.9 mph 5 mph 66% 0 in 652.00 W/m2 unknown
13:54 71.6 °F 59 °F 29.7 in ESE 1.9 mph 5 mph 66% 0 in 659.00 W/m2 unknown
13:59 71.6 °F 59 °F 29.7 in WSW 1.9 mph 5 mph 65% 0 in 661.00 W/m2 unknown
14:04 71.6 °F 59 °F 29.7 in SW 5 mph 6.2 mph 64% 0 in 661.00 W/m2 unknown
14:09 71.6 °F 59 °F 29.7 in SSE 4.3 mph 6.2 mph 64% 0 in 661.00 W/m2 unknown
14:14 71.6 °F 59 °F 29.7 in South 3.1 mph 6.2 mph 64% 0 in 654.00 W/m2 unknown
14:19 71.6 °F 59 °F 29.7 in North 1.9 mph 5 mph 63% 0 in 652.00 W/m2 unknown
14:24 71.6 °F 59 °F 29.7 in WSW 2.5 mph 6.2 mph 64% 0 in 642.00 W/m2 unknown
14:29 71.6 °F 59 °F 29.7 in SSW 3.1 mph 6.2 mph 63% 0 in 636.00 W/m2 unknown
14:34 71.6 °F 59 °F 29.7 in SW 4.3 mph 6.2 mph 63% 0 in 629.00 W/m2 unknown
14:39 71.6 °F 59 °F 29.7 in SSW 5 mph 6.2 mph 62% 0 in 622.00 W/m2 unknown
14:44 71.6 °F 59 °F 29.7 in SSW 5 mph 6.8 mph 62% 0 in 621.00 W/m2 unknown
14:49 71.6 °F 57.2 °F 29.7 in South 5 mph 8.1 mph 62% 0 in 619.00 W/m2 unknown
14:51 71.6 °F 57.2 °F 29.7 in SSE 3.1 mph 8.1 mph 62% 0 in 612.00 W/m2 unknown
14:59 71.6 °F 57.2 °F 29.7 in South 3.1 mph 6.8 mph 62% 0 in 612.00 W/m2 unknown
15:04 71.6 °F 59 °F 29.7 in WSW 4.3 mph 6.8 mph 62% 0 in 594.00 W/m2 unknown
15:09 73.4 °F 59 °F 29.7 in NW 5 mph 6.8 mph 61% 0 in 587.00 W/m2 unknown
15:14 73.4 °F 59 °F 29.7 in SSW 3.1 mph 5 mph 61% 0 in 582.00 W/m2 unknown
15:19 73.4 °F 59 °F 29.7 in NW 2.5 mph 6.8 mph 62% 0 in 573.00 W/m2 unknown
15:24 73.4 °F 59 °F 29.7 in SSW 6.2 mph 8.1 mph 62% 0 in 566.00 W/m2 unknown
15:29 73.4 °F 59 °F 29.7 in SSW 6.2 mph 8.1 mph 60% 0 in 561.00 W/m2 unknown
15:34 73.4 °F 59 °F 29.7 in SW 6.2 mph 8.1 mph 60% 0 in 561.00 W/m2 unknown
15:39 73.4 °F 59 °F 29.7 in SE 3.1 mph 6.2 mph 61% 0 in 541.00 W/m2 unknown
15:44 73.4 °F 59 °F 29.7 in South 3.1 mph 5 mph 61% 0 in 524.00 W/m2 unknown
15:49 73.4 °F 59 °F 29.7 in West 6.2 mph 9.3 mph 61% 0 in 517.00 W/m2 unknown
15:54 73.4 °F 59 °F 29.7 in WNW 6.2 mph 9.3 mph 61% 0 in 512.00 W/m2 unknown
15:59 73.4 °F 59 °F 29.7 in South 3.1 mph 6.2 mph 60% 0 in 496.00 W/m2 unknown
16:04 73.4 °F 59 °F 29.7 in SSW 4.3 mph 6.2 mph 60% 0 in 483.00 W/m2 unknown
16:09 73.4 °F 59 °F 29.7 in South 3.1 mph 6.2 mph 61% 0 in 480.00 W/m2 unknown
16:14 73.4 °F 59 °F 29.7 in SSE 3.1 mph 5 mph 61% 0 in 471.00 W/m2 unknown
16:19 73.4 °F 59 °F 29.7 in South 3.1 mph 6.8 mph 60% 0 in 448.00 W/m2 unknown
16:24 73.4 °F 59 °F 29.7 in SSW 3.1 mph 6.8 mph 60% 0 in 434.00 W/m2 unknown
16:29 73.4 °F 59 °F 29.7 in SSW 4.3 mph 6.8 mph 61% 0 in 424.00 W/m2 unknown
16:34 73.4 °F 59 °F 29.7 in SSW 5 mph 6.2 mph 61% 0 in 406.00 W/m2 unknown
16:39 73.4 °F 59 °F 29.6 in SE 3.1 mph 6.2 mph 63% 0 in 383.00 W/m2 unknown
16:44 73.4 °F 59 °F 29.6 in SSW 1.9 mph 5 mph 62% 0 in 376.00 W/m2 unknown
16:49 73.4 °F 59 °F 29.6 in SW 3.7 mph 6.2 mph 62% 0 in 362.00 W/m2 unknown
16:54 73.4 °F 59 °F 29.6 in WSW 3.7 mph 6.2 mph 62% 0 in 346.00 W/m2 unknown
16:59 73.4 °F 59 °F 29.6 in West 3.1 mph 4.3 mph 62% 0 in 338.00 W/m2 unknown
17:04 73.4 °F 59 °F 29.6 in SSW 3.7 mph 6.2 mph 61% 0 in 325.00 W/m2 unknown
17:09 73.4 °F 59 °F 29.6 in SSW 4.3 mph 6.2 mph 62% 0 in 311.00 W/m2 unknown
17:14 73.4 °F 59 °F 29.6 in SSW 3.1 mph 6.2 mph 61% 0 in 301.00 W/m2 unknown
17:19 73.4 °F 59 °F 29.6 in SW 3.7 mph 6.8 mph 61% 0 in 285.00 W/m2 unknown
17:24 73.4 °F 57.2 °F 29.6 in SSW 3.7 mph 6.8 mph 61% 0 in 272.00 W/m2 unknown
17:29 71.6 °F 59 °F 29.6 in South 2.5 mph 6.8 mph 62% 0 in 255.00 W/m2 unknown
17:34 71.6 °F 59 °F 29.6 in SSE 3.1 mph 5 mph 62% 0 in 237.00 W/m2 unknown
17:39 71.6 °F 59 °F 29.6 in SSW 2.5 mph 5 mph 62% 0 in 220.00 W/m2 unknown
17:44 71.6 °F 59 °F 29.6 in SSW 3.7 mph 6.8 mph 62% 0 in 202.00 W/m2 unknown
17:49 71.6 °F 59 °F 29.6 in SSW 4.3 mph 6.8 mph 62% 0 in 190.00 W/m2 unknown
17:54 71.6 °F 59 °F 29.6 in SSE 3.7 mph 6.8 mph 64% 0 in 178.00 W/m2 unknown
17:59 71.6 °F 59 °F 29.6 in South 3.1 mph 6.8 mph 65% 0 in 149.00 W/m2 unknown
18:04 71.6 °F 59 °F 29.6 in South 4.3 mph 6.2 mph 64% 0 in 128.00 W/m2 unknown
18:09 71.6 °F 59 °F 29.6 in ESE 3.1 mph 6.2 mph 67% 0 in 109.00 W/m2 unknown
18:14 71.6 °F 59 °F 29.6 in SSE 3.1 mph 5 mph 68% 0 in 88.00 W/m2 unknown
18:19 69.8 °F 59 °F 29.6 in ESE 3.1 mph 5 mph 70% 0 in 84.00 W/m2 unknown
18:24 69.8 °F 59 °F 29.6 in SE 3.1 mph 5 mph 70% 0 in 72.00 W/m2 unknown
18:29 69.8 °F 59 °F 29.6 in SE 1.9 mph 5 mph 70% 0 in 60.00 W/m2 unknown
18:34 69.8 °F 59 °F 29.6 in SE 2.5 mph 3.7 mph 71% 0 in 26.00 W/m2 unknown
18:39 69.8 °F 59 °F 29.6 in SE 1.9 mph 3.7 mph 71% 0 in 25.00 W/m2 unknown
18:44 68 °F 59 °F 29.6 in SE 1.9 mph 3.7 mph 71% 0 in 19.00 W/m2 unknown
18:49 68 °F 59 °F 29.6 in SE 1.9 mph 3.7 mph 72% 0 in 12.00 W/m2 unknown
18:54 68 °F 59 °F 29.6 in SSE 1.9 mph 3.7 mph 73% 0 in 9.00 W/m2 unknown
18:59 68 °F 59 °F 29.6 in SSE 1.2 mph 3.1 mph 73% 0 in 5.00 W/m2 unknown
19:04 68 °F 59 °F 29.6 in SE 1.2 mph 2.5 mph 73% 0 in 0.00 W/m2 unknown
19:09 68 °F 59 °F 29.6 in SE 1.9 mph 3.7 mph 73% 0 in 0.00 W/m2 unknown
19:14 68 °F 59 °F 29.6 in SE 1.9 mph 3.7 mph 74% 0 in 0.00 W/m2 unknown
19:19 68 °F 59 °F 29.6 in SE 1.9 mph 3.7 mph 75% 0 in 0.00 W/m2 unknown
19:24 66.2 °F 59 °F 29.6 in SE 0.6 mph 2.5 mph 76% 0 in 0.00 W/m2 unknown
19:29 66.2 °F 59 °F 29.6 in SE 1.2 mph 1.9 mph 78% 0 in 0.00 W/m2 unknown
19:34 66.2 °F 59 °F 29.6 in Calm   1.9 mph 80% 0 in 0.00 W/m2 unknown
19:39 64.4 °F 59 °F 29.6 in East 1.2 mph 2.5 mph 80% 0 in 0.00 W/m2 unknown
19:44 64.4 °F 59 °F 29.6 in East 1.2 mph 2.5 mph 81% 0 in 0.00 W/m2 unknown
19:49 64.4 °F 59 °F 29.6 in East 1.2 mph 2.5 mph 81% 0 in 0.00 W/m2 unknown
19:54 64.4 °F 59 °F 29.6 in East 1.2 mph 1.2 mph 82% 0 in 0.00 W/m2 unknown
19:59 64.4 °F 57.2 °F 29.6 in East 1.2 mph 1.2 mph 82% 0 in 0.00 W/m2 unknown
20:04 64.4 °F 57.2 °F 29.6 in East 1.2 mph 2.5 mph 82% 0 in 0.00 W/m2 unknown
20:09 62.6 °F 57.2 °F 29.6 in East 1.2 mph 2.5 mph 83% 0 in 0.00 W/m2 unknown
20:14 62.6 °F 57.2 °F 29.6 in East 1.2 mph 1.9 mph 83% 0 in 0.00 W/m2 unknown
20:19 62.6 °F 57.2 °F 29.6 in East 0.6 mph 1.2 mph 83% 0 in 0.00 W/m2 unknown
20:24 62.6 °F 59 °F 29.6 in Calm   1.2 mph 83% 0 in 0.00 W/m2 unknown
20:29 64.4 °F 59 °F 29.6 in Calm     83% 0 in 0.00 W/m2 unknown
20:34 64.4 °F 59 °F 29.6 in East 1.2 mph 2.5 mph 83% 0 in 0.00 W/m2 unknown
20:39 64.4 °F 59 °F 29.6 in East 1.2 mph 2.5 mph 83% 0 in 0.00 W/m2 unknown
20:44 64.4 °F 59 °F 29.6 in East 1.2 mph 2.5 mph 83% 0 in 0.00 W/m2 unknown
20:49 64.4 °F 59 °F 29.6 in Calm     83% 0 in 0.00 W/m2 unknown
20:54 64.4 °F 59 °F 29.6 in Calm     83% 0 in 0.00 W/m2 unknown
20:59 62.6 °F 59 °F 29.6 in Calm     84% 0 in 0.00 W/m2 unknown
21:04 62.6 °F 59 °F 29.6 in Calm     84% 0 in 0.00 W/m2 unknown
21:09 62.6 °F 59 °F 29.6 in Calm     84% 0 in 0.00 W/m2 unknown
21:14 62.6 °F 59 °F 29.6 in Calm     85% 0 in 0.00 W/m2 unknown
21:19 62.6 °F 59 °F 29.6 in Calm     85% 0 in 0.00 W/m2 unknown
21:24 62.6 °F 59 °F 29.6 in Calm     85% 0 in 0.00 W/m2 unknown
21:29 62.6 °F 59 °F 29.6 in Calm     85% 0 in 0.00 W/m2 unknown
21:34 62.6 °F 59 °F 29.6 in Calm   1.2 mph 85% 0 in 0.00 W/m2 unknown
21:39 62.6 °F 57.2 °F 29.6 in East 1.2 mph 2.5 mph 85% 0 in 0.00 W/m2 unknown
21:44 62.6 °F 57.2 °F 29.6 in East 1.2 mph 2.5 mph 85% 0 in 0.00 W/m2 unknown
21:49 62.6 °F 57.2 °F 29.6 in East 1.2 mph 2.5 mph 86% 0 in 0.00 W/m2 unknown
21:54 62.6 °F 57.2 °F 29.6 in ESE 1.9 mph 3.7 mph 86% 0 in 0.00 W/m2 unknown
21:59 62.6 °F 57.2 °F 29.6 in SE 1.9 mph 3.7 mph 86% 0 in 0.00 W/m2 unknown
22:04 62.6 °F 57.2 °F 29.6 in SE 2.5 mph 3.7 mph 85% 0 in 0.00 W/m2 unknown
22:09 62.6 °F 57.2 °F 29.6 in SSE 2.5 mph 3.7 mph 84% 0 in 0.00 W/m2 unknown
22:14 62.6 °F 57.2 °F 29.6 in SSE 2.5 mph 6.2 mph 84% 0 in 0.00 W/m2 unknown
22:19 64.4 °F 57.2 °F 29.6 in SSE 2.5 mph 6.2 mph 83% 0 in 0.00 W/m2 unknown
22:24 64.4 °F 57.2 °F 29.6 in SSE 2.5 mph 6.2 mph 82% 0 in 0.00 W/m2 unknown
22:29 62.6 °F 57.2 °F 29.6 in SSE 1.2 mph 3.7 mph 82% 0 in 0.00 W/m2 unknown
22:34 62.6 °F 57.2 °F 29.6 in SE 2.5 mph 3.7 mph 82% 0 in 0.00 W/m2 unknown
22:39 62.6 °F 57.2 °F 29.6 in SE 3.1 mph 3.7 mph 83% 0 in 0.00 W/m2 unknown
22:44 62.6 °F 57.2 °F 29.6 in SSE 1.9 mph 3.7 mph 83% 0 in 0.00 W/m2 unknown
22:49 62.6 °F 57.2 °F 29.6 in South 1.9 mph 3.7 mph 83% 0 in 0.00 W/m2 unknown
22:54 62.6 °F 57.2 °F 29.6 in South 1.9 mph 3.7 mph 83% 0 in 0.00 W/m2 unknown
22:59 62.6 °F 57.2 °F 29.6 in SSW 2.5 mph 3.7 mph 84% 0 in 0.00 W/m2 unknown
23:04 62.6 °F 57.2 °F 29.6 in SSW 1.9 mph 3.7 mph 84% 0 in 0.00 W/m2 unknown
23:09 62.6 °F 57.2 °F 29.6 in SSW 1.2 mph 2.5 mph 84% 0 in 0.00 W/m2 unknown
23:14 62.6 °F 57.2 °F 29.6 in WSW 1.2 mph 2.5 mph 84% 0 in 0.00 W/m2 unknown
23:19 62.6 °F 57.2 °F 29.6 in WSW 1.2 mph 2.5 mph 84% 0 in 0.00 W/m2 unknown
23:24 62.6 °F 57.2 °F 29.6 in NW 1.2 mph 2.5 mph 85% 0 in 0.00 W/m2 unknown
23:29 60.8 °F 57.2 °F 29.6 in NW 1.2 mph 2.5 mph 85% 0 in 0.00 W/m2 unknown
23:34 60.8 °F 57.2 °F 29.6 in Calm   1.9 mph 86% 0 in 0.00 W/m2 unknown
23:39 60.8 °F 57.2 °F 29.6 in Calm     86% 0 in 0.00 W/m2 unknown
23:44 60.8 °F 57.2 °F 29.6 in North 0.6 mph 2.5 mph 87% 0 in 0.00 W/m2 unknown
23:49 60.8 °F 57.2 °F 29.6 in North 1.2 mph 2.5 mph 87% 0 in 0.00 W/m2 unknown
23:54 60.8 °F 57.2 °F 29.6 in North 2.5 mph 3.7 mph 87% 0 in 0.00 W/m2 unknown
23:59 60.8 °F 57.2 °F 29.6 in North 3.7 mph 6.2 mph 87% 0 in 0.00 W/m2 unknown
Stazione Meteorologica MeteoMincio Rivalta s/M (MN)
Con i complimenti di Weather Underground - 4 mb



METEO PILLOLE
La più ampia escursione termica nell'arco di 24 ore negli USA
Browning - Montana
Tra il 23 e il 24 gennaio 1916 la temperatura scese da +6.6°c a -48.9°C.
Share

Non seguire questo link o sarai bannato dal sito!